Location: Central Falls
(41.8900°N, 71.3929°W)
Time: 11:50:20
(UTC+00:00)

Tiros 1 despin weight - Pass Details

Date: 06 December 2023
Orbit: 581 x 625 km, 48.2° (Epoch: 20 February)

Event Time Altitude Azimuth Distance (km) Brightness Sun altitude
Rises 20:46:36 0° 199° (SSW) 2,809 ? 3.5°
Reaches altitude 10° 20:49:22 10° 182° (S) 1,904 ? 3.1°
Maximum altitude 20:52:30 20° 136° (SE) 1,388 ? 2.6°
Drops below altitude 10° 20:55:38 10° 89° (E) 1,898 ? 2.1°
Sets 20:58:23 0° 72° (ENE) 2,798 ? 1.7°
